Regional Weather Roundup
Issued by NWS

Home | Current Version | Previous Version | Graphics & Text | Print | Product List | Glossary On
Versions: 1 2 3 4 5 6 7 8 9 10 11 12 13 14 15 16 17 18 19 20 21 22 23 24 25 26 27 28 29 30 31 32 33 34 35 36 37 38 39 40 41 42 43 44 45 46 47 48 49 50
000
ASUS43 KBIS 200510
RWRND

NORTH DAKOTA REGIONAL WEATHER ROUNDUP
NATIONAL WEATHER SERVICE BISMARCK ND
1200 AM CDT WED AUG 20 2014

NOTE: "FAIR" INDICATES FEW OR NO CLOUDS BELOW 12,000 FEET WITH NO
SIGNIFICANT WEATHER AND/OR OBSTRUCTIONS TO VISIBILITY.


NDZ001>003-009>011-017-200600-
NORTHWEST NORTH DAKOTA

CITY           SKY/WX    TMP DP  RH WIND       PRES   REMARKS
WILLISTON      CLEAR     76  60  57 SE5       29.64F
MINOT          CLEAR     67  60  78 SE5       29.70S
MINOT AFB      CLEAR     64  64  97 SE6       29.69F
$$

NDZ018>021-031>035-040>046-200600-
SOUTHWEST NORTH DAKOTA

CITY           SKY/WX    TMP DP  RH WIND       PRES   REMARKS
BISMARCK       PTCLDY    69  62  78 E6        29.73S
DICKINSON      PTCLDY    68  58  70 SE7       29.69F
GARRISON         N/A     68  65  90 S6        29.71F
HETTINGER ARPT PTCLDY    70  57  63 SE8       29.73F
$$

NDZ004>008-012>016-024-026-027-054-200600-
NORTHEAST NORTH DAKOTA

CITY           SKY/WX    TMP DP  RH WIND       PRES   REMARKS
GRAND FORKS    CLEAR     67  63  87 SE6       29.75S
GRND FRKS AFB  CLEAR     67  66  99 SE5       29.76S
DEVILS LAKE    CLEAR     72  63  73 SE10      29.74S
$$

NDZ022-023-025-028>030-036>039-047>053-200600-
SOUTHEAST NORTH DAKOTA

CITY           SKY/WX    TMP DP  RH WIND       PRES   REMARKS
FARGO          CLEAR     68  64  87 SE6       29.77R
JAMESTOWN      PTCLDY    67  62  84 S3        29.76S
$$



USA.gov is the U.S. government's official web portal to all federal, state and local government web resources and services.